Location: Gorzów Śląski
(51.0283°N, 18.4229°E)
Time: 22:37:07
(UTC+02:00)

ISS - Visible Passes

Search period start: 25 September 2018 00:00
Search period end: 05 October 2018 00:00
Orbit: 403 x 408 km, 51.6° (Epoch: 26 September)

Date Brightness Start Highest point End Pass type
(mag) Time Alt. Az. Time Alt. Az. Time Alt. Az.
25 Sep -2.6 19:28:28 10° SSW 19:31:16 26° SSE 19:33:25 14° E visible
25 Sep -2.3 21:04:11 10° WSW 21:06:06 32° WSW 21:06:06 32° WSW visible
26 Sep -3.8 20:12:22 10° WSW 20:15:38 62° SSE 20:16:23 45° ESE visible
26 Sep -0.5 21:48:50 10° W 21:49:04 12° W 21:49:04 12° W visible
27 Sep -3.3 19:20:37 10° SW 19:23:47 44° SSE 19:26:35 13° E visible
27 Sep -2.7 20:56:53 10° W 20:59:15 43° W 20:59:15 43° W visible
28 Sep -3.9 20:04:58 10° WSW 20:08:17 87° SSE 20:09:23 39° E visible
28 Sep -0.7 21:41:32 10° W 21:42:03 14° W 21:42:03 14° W visible
29 Sep -3.8 19:13:03 10° WSW 19:16:22 70° SSE 19:19:26 11° E visible
29 Sep -2.9 20:49:35 10° W 20:52:07 49° WNW 20:52:07 49° WNW visible
30 Sep -3.8 19:57:36 10° W 20:00:55 79° N 20:02:08 36° ENE visible
30 Sep -0.7 21:34:10 10° WNW 21:34:48 15° W 21:34:48 15° W visible
01 Oct -3.8 19:05:38 10° W 19:08:56 87° N 19:12:07 11° E visible
01 Oct -3.0 20:42:12 10° W 20:44:47 52° WNW 20:44:47 52° WNW visible
02 Oct -3.8 19:50:13 10° W 19:53:32 80° N 19:54:46 35° E visible
02 Oct -0.8 21:26:46 10° W 21:27:26 15° W 21:27:26 15° W visible
03 Oct -3.7 18:58:12 10° W 19:01:31 78° N 19:04:44 11° E visible
03 Oct -3.1 20:34:45 10° W 20:37:24 51° WSW 20:37:24 51° WSW visible
04 Oct -3.9 19:42:45 10° W 19:46:04 86° SSW 19:47:23 34° ESE visible
04 Oct -0.7 21:19:26 10° W 21:20:03 14° W 21:20:03 14° W visible
